Hourly Data Report for October 20, 2016

All times are specified in Local Standard Time (LST). Add 1 hour to adjust for Daylight Saving Time where and when it is observed.

QIKIQTARJUAQ A
NUNAVUT

67°32'48.000" N
64°01'54.000" W
5.50 m
2400577
YVM

Download Data

Hourly Data (October 2016)
Hourly Data Report for October 20, 2016
Temp Definition
°C
Dew Point Temp Definition
°C
Rel Hum Definition
%
Wind Dir Definition
10's deg

Wind Spd Definition
km/h
Visibility Definition
km
Stn Press Definition
kPa
Hmdx Definition


Wind Chill Definition


Weather Definition


TIME
00:00 Legend Double Dagger -6.7 -13.4 59 LegendMM 8 16.1 101.02   -11 LegendNANA
01:00 Legend Double Dagger -8.4 -14.2 63 16 5 16.1 100.99   -11 LegendNANA
02:00 Legend Double Dagger -6.5 -14.2 55 15 5 16.1 100.97   -9 LegendNANA
03:00 Legend Double Dagger -7.6 -12.2 70 14 17 16.1 100.92   -14 LegendNANA
04:00 Legend Double Dagger -6.5 -13.7 57 21 13 16.1 100.92   -12 LegendNANA
05:00 Legend Double Dagger -7.5 -14.6 57 LegendMM 4 16.1 100.91   -10 LegendNANA
06:00 Legend Double Dagger -6.4 -12.8 61 21 5 16.1 100.88   -9 LegendNANA
07:00 Legend Double Dagger -5.5 -12.7 57 18 15 16.1 100.81   -11 LegendNANA
08:00 Legend Double Dagger -5.3 -13.1 54 19 13 16.1 100.75   -10 LegendNANA
09:00 Legend Double Dagger -4.8 -13.5 51 18 15 16.1 100.67   -10 LegendNANA
10:00 Legend Double Dagger -5.1 -12.8 55 LegendMM 4 16.1 100.62   -7 LegendNANA
11:00 Legend Double Dagger -3.9 -10.6 60 19 17 16.1 100.55   -10 LegendNANA
12:00 Legend Double Dagger -2.7 -12.9 46 18 15 16.1 100.52   -8 LegendNANA
13:00 Legend Double Dagger -2.9 -12.7 47 19 18 16.1 100.49   -9 LegendNANA
14:00 Legend Double Dagger -3.4 -12.6 49 22 11 16.1 100.45   -8 LegendNANA
15:00 Legend Double Dagger -1.9 -11.7 47 17 30 16.1 100.36   -9 LegendNANA
16:00 Legend Double Dagger -2.0 -10.9 51 17 28 16.1 100.31   -9 LegendNANA
17:00 Legend Double Dagger -1.9 -10.6 52 18 39 16.1 100.26   -10 LegendNANA
18:00 Legend Double Dagger -1.4 -11.3 47 17 26 16.1 100.25   -8 LegendNANA
19:00 Legend Double Dagger -2.2 -9.7 57 21 15 16.1 100.27   -7 LegendNANA
20:00 Legend Double Dagger -0.9 -10.3 49 23 13 16.1 100.29   -5 LegendNANA
21:00 Legend Double Dagger -1.9 -10.2 53 26 8 16.1 100.32   -5 LegendNANA
22:00 Legend Double Dagger -1.6 -8.8 58 26 22 16.1 100.31   -8 LegendNANA
23:00 Legend Double Dagger -1.4 -10.6 50 27 28 16.1 100.30   -8 LegendNANA

Notes on Data Quality.

Legend

  • E = Estimated
  • M = Missing
  • NA = Not Available
  • ‡ = Partner data that is not subject to review by the National Climate Archives
Date modified: